,,,PA_Meas_PMT16A,,PR_Meas_QMR101_102,,RH_Meas_QMH101,,SR_Meas_QMS101,,TA_Meas_QMH101,,GenWind,,GenWind,
date,time,status,PA,status,PR,status,RH,status,SR,status,TA,status,DirAvg,status,SpdAvg,
2009-11-27, 00:00:04,VALID,1003.01,VALID,0,VALID,93.1029,VALID,0,VALID,24.4433,VALID,358,VALID,0,
2009-11-27, 00:01:04,VALID,1003.01,VALID,0,VALID,93.08,VALID,0,VALID,24.4025,VALID,358,VALID,0,
2009-11-27, 00:02:04,VALID,1003.01,VALID,0,VALID,93.0647,VALID,0,VALID,24.4025,VALID,358,VALID,0,
2009-11-27, 00:03:04,VALID,1003.05,VALID,0,VALID,93.0723,VALID,0,VALID,24.4043,VALID,358,VALID,0,
2009-11-27, 00:04:04,VALID,1003.04,VALID,0,VALID,93.0723,VALID,0,VALID,24.4043,VALID,358,VALID,0,
2009-11-27, 00:05:04,VALID,1003.04,VALID,0,VALID,93.1257,VALID,0,VALID,24.383,VALID,358,VALID,0,
2009-11-27, 00:06:04,VALID,1003.02,VALID,0,VALID,93.1944,VALID,0,VALID,24.4025,VALID,358,VALID,0,
2009-11-27, 00:07:04,VALID,1003.04,VALID,0,VALID,93.1944,VALID,0,VALID,24.4025,VALID,358,VALID,0,
2009-11-27, 00:08:04,VALID,1003.02,VALID,0,VALID,93.2402,VALID,0,VALID,24.4043,VALID,358,VALID,0,
2009-11-27, 00:09:04,VALID,1003.01,VALID,0,VALID,93.2936,VALID,0,VALID,24.4025,VALID,358,VALID,0,
2009-11-27, 00:10:04,VALID,1003,VALID,0,VALID,93.3317,VALID,0,VALID,24.4433,VALID,358,VALID,0,
2009-11-27, 00:11:04,VALID,1003.03,VALID,0,VALID,93.3699,VALID,0,VALID,24.4628,VALID,358,VALID,0,
2009-11-27, 00:12:04,VALID,1003,VALID,0,VALID,93.3546,VALID,0,VALID,24.4628,VALID,358,VALID,0,
2009-11-27, 00:13:04,VALID,1002.99,VALID,0,VALID,93.3775,VALID,0,VALID,24.4609,VALID,358,VALID,0,
2009-11-27, 00:14:04,VALID,1003,VALID,0,VALID,93.3775,VALID,0,VALID,24.4609,VALID,358,VALID,0,
2009-11-27, 00:15:04,VALID,1002.98,VALID,0,VALID,93.3317,VALID,0,VALID,24.4609,VALID,358,VALID,0,
2009-11-27, 00:16:04,VALID,1002.96,VALID,0,VALID,93.3317,VALID,0,VALID,24.4822,VALID,358,VALID,0,
2009-11-27, 00:17:04,VALID,1002.96,VALID,0,VALID,93.3088,VALID,0,VALID,24.4822,VALID,358,VALID,0,
2009-11-27, 00:18:04,VALID,1002.95,VALID,0,VALID,93.347,VALID,0,VALID,24.4822,VALID,358,VALID,0,
2009-11-27, 00:19:04,VALID,1002.93,VALID,0,VALID,93.3622,VALID,0,VALID,24.4804,VALID,358,VALID,0,
2009-11-27, 00:20:04,VALID,1002.93,VALID,0,VALID,93.3317,VALID,0,VALID,24.4804,VALID,358,VALID,0,
2009-11-27, 00:21:04,VALID,1002.97,VALID,0,VALID,93.2936,VALID,0,VALID,24.4609,VALID,358,VALID,0,
2009-11-27, 00:22:04,VALID,1002.93,VALID,0,VALID,93.2631,VALID,0,VALID,24.5017,VALID,358,VALID,0,
2009-11-27, 00:23:04,VALID,1002.91,VALID,0,VALID,93.3165,VALID,0,VALID,24.4804,VALID,358,VALID,0,
2009-11-27, 00:24:04,VALID,1002.91,VALID,0,VALID,93.3165,VALID,0,VALID,24.4804,VALID,358,VALID,0,
2009-11-27, 00:25:04,VALID,1002.92,VALID,0,VALID,93.3088,VALID,0,VALID,24.4804,VALID,358,VALID,0,
2009-11-27, 00:26:04,VALID,1002.9,VALID,0,VALID,93.2936,VALID,0,VALID,24.4998,VALID,358,VALID,0,
2009-11-27, 00:27:04,VALID,1002.89,VALID,0,VALID,93.2478,VALID,0,VALID,24.5212,VALID,358,VALID,0,
2009-11-27, 00:28:04,VALID,1002.89,VALID,0,VALID,93.2097,VALID,0,VALID,24.5388,VALID,358,VALID,0,
2009-11-27, 00:29:04,VALID,1002.89,VALID,0,VALID,93.2325,VALID,0.100563,VALID,24.5388,VALID,358,VALID,0,
2009-11-27, 00:30:04,VALID,1002.9,VALID,0,VALID,93.1944,VALID,0,VALID,24.5174,VALID,358,VALID,0,
2009-11-27, 00:31:04,VALID,1002.9,VALID,0,VALID,93.1639,VALID,0.100563,VALID,24.5174,VALID,358,VALID,0,
2009-11-27, 00:32:04,VALID,1002.89,VALID,0,VALID,93.2097,VALID,0.100563,VALID,24.5564,VALID,358,VALID,0,
2009-11-27, 00:33:04,VALID,1002.88,VALID,0,VALID,93.1563,VALID,0.201126,VALID,24.5564,VALID,358,VALID,0,
2009-11-27, 00:34:04,VALID,1002.92,VALID,0,VALID,93.1257,VALID,0.100563,VALID,24.5777,VALID,358,VALID,0,
2009-11-27, 00:35:04,VALID,1002.92,VALID,0,VALID,93.0876,VALID,0.100563,VALID,24.5777,VALID,358,VALID,0,
2009-11-27, 00:36:04,VALID,1002.9,VALID,0,VALID,93.0418,VALID,0.100563,VALID,24.5564,VALID,358,VALID,0,
2009-11-27, 00:37:04,VALID,1002.91,VALID,0,VALID,93.08,VALID,0,VALID,24.5369,VALID,358,VALID,0,
2009-11-27, 00:38:04,VALID,1002.9,VALID,0,VALID,93.08,VALID,0.100563,VALID,24.5369,VALID,358,VALID,0,
2009-11-27, 00:39:04,VALID,1002.88,VALID,0,VALID,93.0189,VALID,0,VALID,24.5582,VALID,358,VALID,0,
2009-11-27, 00:40:04,VALID,1002.87,VALID,0,VALID,92.9961,VALID,0.100563,VALID,24.5388,VALID,358,VALID,0,
2009-11-27, 00:41:04,VALID,1002.85,VALID,0,VALID,93.0495,VALID,0.100563,VALID,24.5777,VALID,358,VALID,0,
2009-11-27, 00:42:04,VALID,1002.85,VALID,0,VALID,92.9961,VALID,0.100563,VALID,24.5388,VALID,358,VALID,0,
2009-11-27, 00:43:04,VALID,1002.84,VALID,0,VALID,92.9655,VALID,0,VALID,24.5601,VALID,358,VALID,0,
2009-11-27, 00:44:04,VALID,1002.8,VALID,0,VALID,93.0113,VALID,0,VALID,24.5406,VALID,358,VALID,0,
2009-11-27, 00:45:04,VALID,1002.77,VALID,0,VALID,93.0189,VALID,0,VALID,24.4998,VALID,358,VALID,0,
2009-11-27, 00:46:04,VALID,1002.75,VALID,0,VALID,93.0876,VALID,0,VALID,24.5406,VALID,358,VALID,0,
2009-11-27, 00:47:04,VALID,1002.74,VALID,0,VALID,93.1105,VALID,0,VALID,24.5212,VALID,358,VALID,0,
2009-11-27, 00:48:04,VALID,1002.71,VALID,0,VALID,93.1105,VALID,0,VALID,24.4998,VALID,358,VALID,0,
2009-11-27, 00:49:04,VALID,1002.71,VALID,0,VALID,93.1563,VALID,0,VALID,24.5212,VALID,358,VALID,0,
2009-11-27, 00:50:04,VALID,1002.72,VALID,0,VALID,93.1486,VALID,0,VALID,24.5017,VALID,358,VALID,0,
2009-11-27, 00:51:04,VALID,1002.73,VALID,0,VALID,93.1257,VALID,0,VALID,24.5017,VALID,358,VALID,0,
2009-11-27, 00:52:04,VALID,1002.72,VALID,0,VALID,93.0876,VALID,0,VALID,24.4804,VALID,358,VALID,0,
2009-11-27, 00:53:04,VALID,1002.69,VALID,0,VALID,93.0495,VALID,0,VALID,24.4804,VALID,358,VALID,0,
2009-11-27, 00:54:04,VALID,1002.68,VALID,0,VALID,92.9961,VALID,0,VALID,24.4998,VALID,358,VALID,0,
2009-11-27, 00:55:04,VALID,1002.65,VALID,0,VALID,92.9579,VALID,0,VALID,24.4998,VALID,358,VALID,0,
2009-11-27, 00:56:04,VALID,1002.62,VALID,0,VALID,92.9503,VALID,0,VALID,24.5193,VALID,358,VALID,0,
2009-11-27, 00:57:04,VALID,1002.61,VALID,0,VALID,92.9732,VALID,0,VALID,24.5406,VALID,358,VALID,0,
2009-11-27, 00:58:04,VALID,1002.57,VALID,0,VALID,92.9961,VALID,0,VALID,24.5193,VALID,358,VALID,0,
2009-11-27, 00:59:04,VALID,1002.53,VALID,0,VALID,92.9732,VALID,0,VALID,24.4998,VALID,358,VALID,0,
2009-11-27, 01:00:04,VALID,1002.53,VALID,0,VALID,92.935,VALID,0,VALID,24.4609,VALID,358,VALID,0,
2009-11-27, 01:01:04,VALID,1002.54,VALID,0,VALID,92.9274,VALID,0,VALID,24.4628,VALID,358,VALID,0,
2009-11-27, 01:02:04,VALID,1002.53,VALID,0,VALID,93.0495,VALID,0,VALID,24.4414,VALID,358,VALID,0,
2009-11-27, 01:03:04,VALID,1002.53,VALID,0,VALID,93.1563,VALID,0,VALID,24.4628,VALID,358,VALID,0,
2009-11-27, 01:04:04,VALID,1002.54,VALID,0,VALID,93.2478,VALID,0,VALID,24.4628,VALID,358,VALID,0,
2009-11-27, 01:05:04,VALID,1002.54,VALID,0,VALID,93.3317,VALID,0,VALID,24.4609,VALID,358,VALID,0,
2009-11-27, 01:06:04,VALID,1002.54,VALID,0,VALID,93.3699,VALID,0,VALID,24.4628,VALID,358,VALID,0,
2009-11-27, 01:07:04,VALID,1002.52,VALID,0,VALID,93.3851,VALID,0,VALID,24.4822,VALID,358,VALID,0,
2009-11-27, 01:08:04,VALID,1002.54,VALID,0,VALID,93.4156,VALID,0,VALID,24.4609,VALID,358,VALID,0,
2009-11-27, 01:09:04,VALID,1002.5,VALID,0,VALID,93.408,VALID,0,VALID,24.4804,VALID,358,VALID,0,
2009-11-27, 01:10:04,VALID,1002.51,VALID,0,VALID,93.3851,VALID,0,VALID,24.4804,VALID,358,VALID,0,
2009-11-27, 01:11:04,VALID,1002.49,VALID,0,VALID,93.3546,VALID,0,VALID,24.4804,VALID,358,VALID,0,
2009-11-27, 01:12:04,VALID,1002.5,VALID,0,VALID,93.2859,VALID,0,VALID,24.4414,VALID,358,VALID,0,
2009-11-27, 01:13:04,VALID,1002.5,VALID,0,VALID,93.2478,VALID,0,VALID,24.4238,VALID,358,VALID,0,
2009-11-27, 01:14:04,VALID,1002.45,VALID,0,VALID,93.2478,VALID,0,VALID,24.4043,VALID,358,VALID,0,
2009-11-27, 01:15:04,VALID,1002.48,VALID,0,VALID,93.2859,VALID,0,VALID,24.3636,VALID,358,VALID,0,
2009-11-27, 01:16:04,VALID,1002.46,VALID,0,VALID,93.3394,VALID,0,VALID,24.3849,VALID,358,VALID,0,
2009-11-27, 01:17:04,VALID,1002.42,VALID,0,VALID,93.4156,VALID,0,VALID,24.383,VALID,358,VALID,0,
2009-11-27, 01:18:04,VALID,1002.41,VALID,0,VALID,93.469,VALID,0,VALID,24.3849,VALID,358,VALID,0,
2009-11-27, 01:19:04,VALID,1002.37,VALID,0,VALID,93.4843,VALID,0,VALID,24.3636,VALID,358,VALID,0,
2009-11-27, 01:20:04,VALID,1002.37,VALID,0,VALID,93.5301,VALID,0,VALID,24.3441,VALID,358,VALID,0,
2009-11-27, 01:21:04,VALID,1002.35,VALID,0,VALID,93.5911,VALID,0,VALID,24.3441,VALID,358,VALID,0,
2009-11-27, 01:22:04,VALID,1002.36,VALID,0,VALID,93.6369,VALID,0,VALID,24.3654,VALID,358,VALID,0,
2009-11-27, 01:23:04,VALID,1002.33,VALID,0,VALID,93.6445,VALID,0,VALID,24.3654,VALID,358,VALID,0,
2009-11-27, 01:24:04,VALID,1002.3,VALID,0,VALID,93.6903,VALID,0,VALID,24.3636,VALID,358,VALID,0,
2009-11-27, 01:25:04,VALID,1002.29,VALID,0,VALID,93.7361,VALID,0,VALID,24.3636,VALID,358,VALID,0,
2009-11-27, 01:26:04,VALID,1002.27,VALID,0,VALID,93.7437,VALID,0,VALID,24.3849,VALID,358,VALID,0,
2009-11-27, 01:27:04,VALID,1002.27,VALID,0,VALID,93.6979,VALID,0,VALID,24.3849,VALID,358,VALID,0,
2009-11-27, 01:28:04,VALID,1002.25,VALID,0,VALID,93.6445,VALID,0.100563,VALID,24.383,VALID,358,VALID,0,
2009-11-27, 01:29:04,VALID,1002.25,VALID,0,VALID,93.6064,VALID,0.100563,VALID,24.383,VALID,358,VALID,0,
2009-11-27, 01:30:04,VALID,1002.21,VALID,0,VALID,93.6216,VALID,0.100563,VALID,24.383,VALID,358,VALID,0,
2009-11-27, 01:31:04,VALID,1002.21,VALID,0,VALID,93.6369,VALID,0.100563,VALID,24.422,VALID,358,VALID,0,
2009-11-27, 01:32:04,VALID,1002.2,VALID,0,VALID,93.6292,VALID,0.100563,VALID,24.422,VALID,358,VALID,0,
2009-11-27, 01:33:04,VALID,1002.18,VALID,0,VALID,93.5987,VALID,0,VALID,24.3812,VALID,358,VALID,0,
2009-11-27, 01:34:04,VALID,1002.16,VALID,0,VALID,93.6292,VALID,0,VALID,24.422,VALID,358,VALID,0,
2009-11-27, 01:35:04,VALID,1002.16,VALID,0,VALID,93.614,VALID,0,VALID,24.4025,VALID,358,VALID,0,
2009-11-27, 01:36:04,VALID,1002.15,VALID,0,VALID,93.5377,VALID,0.100563,VALID,24.3617,VALID,358,VALID,0,
2009-11-27, 01:37:04,VALID,1002.14,VALID,0,VALID,93.5224,VALID,0.100563,VALID,24.3422,VALID,358,VALID,0,
2009-11-27, 01:38:04,VALID,1002.14,VALID,0,VALID,93.5301,VALID,0.100563,VALID,24.3636,VALID,358,VALID,0,
2009-11-27, 01:39:04,VALID,1002.16,VALID,0,VALID,93.5606,VALID,0,VALID,24.3441,VALID,358,VALID,0,
2009-11-27, 01:40:04,VALID,1002.14,VALID,0,VALID,93.6216,VALID,0.100563,VALID,24.3441,VALID,358,VALID,0,
2009-11-27, 01:41:04,VALID,1002.1,VALID,0,VALID,93.7055,VALID,0.100563,VALID,24.3422,VALID,358,VALID,0,
2009-11-27, 01:42:04,VALID,1002.13,VALID,0,VALID,93.7132,VALID,0.100563,VALID,24.3636,VALID,358,VALID,0,
2009-11-27, 01:43:04,VALID,1002.15,VALID,0,VALID,93.7513,VALID,0,VALID,24.3441,VALID,358,VALID,0,
2009-11-27, 01:44:04,VALID,1002.15,VALID,0,VALID,93.7589,VALID,0,VALID,24.3654,VALID,358,VALID,0,
2009-11-27, 01:45:04,VALID,1002.14,VALID,0,VALID,93.7818,VALID,0,VALID,24.3441,VALID,358,VALID,0,
2009-11-27, 01:46:04,VALID,1002.14,VALID,0,VALID,93.8352,VALID,0,VALID,24.3636,VALID,358,VALID,0,
2009-11-27, 01:47:04,VALID,1002.18,VALID,0,VALID,93.8581,VALID,0,VALID,24.3849,VALID,358,VALID,0,
2009-11-27, 01:48:04,VALID,1002.13,VALID,0,VALID,93.8963,VALID,0,VALID,24.383,VALID,358,VALID,0,
2009-11-27, 01:49:04,VALID,1002.1,VALID,0,VALID,93.8276,VALID,0,VALID,24.3636,VALID,358,VALID,0,
2009-11-27, 01:50:04,VALID,1002.09,VALID,0,VALID,93.7818,VALID,0,VALID,24.3441,VALID,358,VALID,0,
2009-11-27, 01:51:04,VALID,1002.1,VALID,0,VALID,93.7818,VALID,0,VALID,24.3636,VALID,358,VALID,0,
2009-11-27, 01:52:04,VALID,1002.09,VALID,0,VALID,93.7971,VALID,0,VALID,24.3228,VALID,358,VALID,0,
2009-11-27, 01:53:04,VALID,1002.1,VALID,0,VALID,93.7971,VALID,0,VALID,24.3246,VALID,358,VALID,0,
2009-11-27, 01:54:04,VALID,1002.06,VALID,0,VALID,93.82,VALID,0,VALID,24.3246,VALID,358,VALID,0,
2009-11-27, 01:55:04,VALID,1002.07,VALID,0,VALID,93.8047,VALID,0,VALID,24.2839,VALID,358,VALID,0,
2009-11-27, 01:56:04,VALID,1002.07,VALID,0,VALID,93.8047,VALID,0,VALID,24.2857,VALID,358,VALID,0,
2009-11-27, 01:57:04,VALID,1002.07,VALID,0,VALID,93.8352,VALID,0,VALID,24.3052,VALID,358,VALID,0,
2009-11-27, 01:58:04,VALID,1002.1,VALID,0,VALID,93.881,VALID,0,VALID,24.307,VALID,358,VALID,0,
2009-11-27, 01:59:04,VALID,1002.07,VALID,0,VALID,93.9344,VALID,0,VALID,24.3265,VALID,358,VALID,0,
2009-11-27, 02:00:04,VALID,1002.07,VALID,0,VALID,93.9725,VALID,0,VALID,24.2857,VALID,358,VALID,0,
2009-11-27, 02:01:04,VALID,1002.06,VALID,0,VALID,94.0031,VALID,0,VALID,24.2644,VALID,358,VALID,0,
2009-11-27, 02:02:04,VALID,1002.06,VALID,0,VALID,94.0717,VALID,0,VALID,24.3052,VALID,358,VALID,0,
2009-11-27, 02:03:04,VALID,1002.08,VALID,0,VALID,94.1251,VALID,0,VALID,24.3265,VALID,358,VALID,0,
2009-11-27, 02:04:04,VALID,1002.07,VALID,0,VALID,94.1709,VALID,0,VALID,24.3246,VALID,358,VALID,0,
2009-11-27, 02:05:04,VALID,1002.07,VALID,0,VALID,94.1938,VALID,0,VALID,24.3459,VALID,358,VALID,0,
2009-11-27, 02:06:04,VALID,1002.07,VALID,0,VALID,94.148,VALID,0,VALID,24.3265,VALID,358,VALID,0,
2009-11-27, 02:07:04,VALID,1002.04,VALID,0,VALID,94.1785,VALID,0,VALID,24.3052,VALID,358,VALID,0,
2009-11-27, 02:08:04,VALID,1002.05,VALID,0,VALID,94.1709,VALID,0,VALID,24.3265,VALID,358,VALID,0,
2009-11-27, 02:09:04,VALID,1002.07,VALID,0,VALID,94.148,VALID,0,VALID,24.2662,VALID,358,VALID,0,
2009-11-27, 02:10:04,VALID,1002.06,VALID,0,VALID,94.148,VALID,0.100563,VALID,24.2857,VALID,358,VALID,0,
2009-11-27, 02:11:04,VALID,1002.05,VALID,0,VALID,94.1785,VALID,0,VALID,24.3052,VALID,358,VALID,0,
2009-11-27, 02:12:04,VALID,1002,VALID,0,VALID,94.2319,VALID,0,VALID,24.3052,VALID,358,VALID,0,
2009-11-27, 02:13:04,VALID,1002,VALID,0,VALID,94.1938,VALID,0,VALID,24.2857,VALID,358,VALID,0,
2009-11-27, 02:14:04,VALID,1002.01,VALID,0,VALID,94.1938,VALID,0,VALID,24.2857,VALID,358,VALID,0,
2009-11-27, 02:15:04,VALID,1001.97,VALID,0,VALID,94.1709,VALID,0,VALID,24.2662,VALID,358,VALID,0,
2009-11-27, 02:16:04,VALID,1001.97,VALID,0,VALID,94.1938,VALID,0,VALID,24.2857,VALID,358,VALID,0,
2009-11-27, 02:17:04,VALID,1001.95,VALID,0,VALID,94.2014,VALID,0,VALID,24.3088,VALID,358,VALID,0,
2009-11-27, 02:18:04,VALID,1001.95,VALID,0,VALID,94.1709,VALID,0,VALID,24.2857,VALID,358,VALID,0,
2009-11-27, 02:19:04,VALID,1001.96,VALID,0,VALID,94.1938,VALID,0,VALID,24.2662,VALID,358,VALID,0,
2009-11-27, 02:20:04,VALID,1001.92,VALID,0,VALID,94.2014,VALID,0.100563,VALID,24.2857,VALID,358,VALID,0,
2009-11-27, 02:21:04,VALID,1001.94,VALID,0,VALID,94.2472,VALID,0,VALID,24.2857,VALID,358,VALID,0,
2009-11-27, 02:22:04,VALID,1001.95,VALID,0,VALID,94.2624,VALID,0,VALID,24.2662,VALID,358,VALID,0,
2009-11-27, 02:23:04,VALID,1001.97,VALID,0,VALID,94.2701,VALID,0,VALID,24.2662,VALID,358,VALID,0,
2009-11-27, 02:24:04,VALID,1001.96,VALID,0,VALID,94.293,VALID,0,VALID,24.2662,VALID,358,VALID,0,
2009-11-27, 02:25:04,VALID,1002,VALID,0,VALID,94.3387,VALID,0.100563,VALID,24.2857,VALID,358,VALID,0,
2009-11-27, 02:26:04,VALID,1002.02,VALID,0,VALID,94.4379,VALID,0,VALID,24.3246,VALID,358,VALID,0,
2009-11-27, 02:27:04,VALID,1002.04,VALID,0,VALID,94.4532,VALID,0,VALID,24.3246,VALID,358,VALID,0,
2009-11-27, 02:28:04,VALID,1002.07,VALID,0,VALID,94.4684,VALID,0,VALID,24.3441,VALID,358,VALID,0,
2009-11-27, 02:29:04,VALID,1002.06,VALID,0,VALID,94.4532,VALID,0,VALID,24.3849,VALID,358,VALID,0,
2009-11-27, 02:30:04,VALID,1002.07,VALID,0,VALID,94.5066,VALID,0,VALID,24.383,VALID,349,VALID,0,
2009-11-27, 02:31:04,VALID,1002.08,VALID,0,VALID,94.4837,VALID,0,VALID,24.4238,VALID,349,VALID,0,
2009-11-27, 02:32:04,VALID,1002.06,VALID,0,VALID,94.4303,VALID,0,VALID,24.4043,VALID,349,VALID,0,
2009-11-27, 02:33:04,VALID,1002.07,VALID,0,VALID,94.3845,VALID,0,VALID,24.3849,VALID,359,VALID,0,
2009-11-27, 02:34:04,VALID,1002.03,VALID,0,VALID,94.3311,VALID,0,VALID,24.3441,VALID,12,VALID,0,
2009-11-27, 02:35:04,VALID,1002.04,VALID,0,VALID,94.2548,VALID,0,VALID,24.3246,VALID,15,VALID,0,
2009-11-27, 02:36:04,VALID,1002.01,VALID,0,VALID,94.2014,VALID,0,VALID,24.307,VALID,15,VALID,0,
2009-11-27, 02:37:04,VALID,1002,VALID,0,VALID,94.1633,VALID,0,VALID,24.2857,VALID,15,VALID,0,
2009-11-27, 02:38:04,VALID,1002.02,VALID,0,VALID,94.1938,VALID,0,VALID,24.2857,VALID,15,VALID,0,
2009-11-27, 02:39:04,VALID,1002,VALID,0,VALID,94.2548,VALID,0,VALID,24.3052,VALID,15,VALID,0,
2009-11-27, 02:40:04,VALID,1002.02,VALID,0,VALID,94.3006,VALID,0,VALID,24.3246,VALID,15,VALID,0,
2009-11-27, 02:41:04,VALID,1002,VALID,0,VALID,94.354,VALID,0,VALID,24.4043,VALID,6,VALID,0,
2009-11-27, 02:42:04,VALID,1001.99,VALID,0,VALID,94.4227,VALID,0,VALID,24.4025,VALID,324,VALID,0,
2009-11-27, 02:43:04,VALID,1002,VALID,0,VALID,94.4074,VALID,0,VALID,24.4414,VALID,341,VALID,0,
2009-11-27, 02:44:04,VALID,1001.95,VALID,0,VALID,94.3769,VALID,0,VALID,24.422,VALID,343,VALID,0,
2009-11-27, 02:45:04,VALID,1001.97,VALID,0,VALID,94.3158,VALID,0,VALID,24.4025,VALID,343,VALID,0.391406,
2009-11-27, 02:46:04,VALID,1001.96,VALID,0,VALID,94.209,VALID,0,VALID,24.383,VALID,344,VALID,0.651563,
2009-11-27, 02:47:04,VALID,1001.94,VALID,0,VALID,94.1328,VALID,0,VALID,24.3636,VALID,344,VALID,0.385547,
2009-11-27, 02:48:04,VALID,1001.95,VALID,0,VALID,94.087,VALID,0.100563,VALID,24.3228,VALID,344,VALID,0.503125,
2009-11-27, 02:49:04,VALID,1001.93,VALID,0,VALID,94.1099,VALID,0,VALID,24.3441,VALID,344,VALID,0.312891,
2009-11-27, 02:50:04,VALID,1001.92,VALID,0,VALID,94.1328,VALID,0.100563,VALID,24.3228,VALID,344,VALID,0.279297,
2009-11-27, 02:51:04,VALID,1001.93,VALID,0,VALID,94.1938,VALID,0,VALID,24.3636,VALID,344,VALID,0.273438,
2009-11-27, 02:52:04,VALID,1001.95,VALID,0,VALID,94.2472,VALID,0,VALID,24.383,VALID,344,VALID,0.216406,
2009-11-27, 02:53:04,VALID,1001.93,VALID,0,VALID,94.2319,VALID,0.100563,VALID,24.3636,VALID,344,VALID,0,
2009-11-27, 02:54:04,VALID,1001.93,VALID,0,VALID,94.2319,VALID,0,VALID,24.3441,VALID,344,VALID,0.602734,
2009-11-27, 02:55:04,VALID,1001.95,VALID,0,VALID,94.2624,VALID,0,VALID,24.3636,VALID,353,VALID,0.546875,
2009-11-27, 02:56:04,VALID,1001.92,VALID,0,VALID,94.3464,VALID,0,VALID,24.383,VALID,352,VALID,0.230859,
2009-11-27, 02:57:04,VALID,1001.9,VALID,0,VALID,94.3921,VALID,0,VALID,24.4628,VALID,352,VALID,0.195313,
2009-11-27, 02:58:04,VALID,1001.86,VALID,0,VALID,94.4227,VALID,0,VALID,24.4396,VALID,352,VALID,0.534375,
2009-11-27, 02:59:04,VALID,1001.86,VALID,0,VALID,94.4074,VALID,0,VALID,24.4414,VALID,352,VALID,0.480469,
2009-11-27, 03:00:04,VALID,1001.82,VALID,0,VALID,94.3845,VALID,0,VALID,24.4414,VALID,352,VALID,0.59375,
2009-11-27, 03:01:04,VALID,1001.84,VALID,0,VALID,94.3387,VALID,0,VALID,24.4006,VALID,352,VALID,0.462109,
2009-11-27, 03:02:04,VALID,1001.81,VALID,0,VALID,94.3082,VALID,0,VALID,24.4201,VALID,356,VALID,0.941797,
2009-11-27, 03:03:04,VALID,1001.79,VALID,0,VALID,94.2548,VALID,0,VALID,24.4025,VALID,339,VALID,0.695313,
2009-11-27, 03:04:04,VALID,1001.78,VALID,0,VALID,94.2167,VALID,0,VALID,24.3812,VALID,342,VALID,0.750781,
2009-11-27, 03:05:04,VALID,1001.76,VALID,0,VALID,94.1556,VALID,0.100563,VALID,24.4025,VALID,356,VALID,0.687109,
2009-11-27, 03:06:04,VALID,1001.78,VALID,0,VALID,94.1175,VALID,0,VALID,24.4006,VALID,356,VALID,0.613672,
2009-11-27, 03:07:04,VALID,1001.81,VALID,0,VALID,94.0946,VALID,0,VALID,24.422,VALID,333,VALID,0.167187,
2009-11-27, 03:08:04,VALID,1001.79,VALID,0,VALID,94.0031,VALID,0,VALID,24.422,VALID,333,VALID,0.0101562,
2009-11-27, 03:09:04,VALID,1001.84,VALID,0,VALID,93.942,VALID,0.100563,VALID,24.422,VALID,333,VALID,0.161719,
2009-11-27, 03:10:04,VALID,1001.84,VALID,0,VALID,93.881,VALID,0.100563,VALID,24.4414,VALID,333,VALID,0.132422,
2009-11-27, 03:11:04,VALID,1001.91,VALID,0,VALID,93.8047,VALID,0,VALID,24.4414,VALID,335,VALID,0.00898437,
2009-11-27, 03:12:04,VALID,1001.89,VALID,0,VALID,93.6979,VALID,0,VALID,24.4609,VALID,356,VALID,1.30117,
2009-11-27, 03:13:04,VALID,1001.9,VALID,0,VALID,93.4385,VALID,0,VALID,24.4025,VALID,14,VALID,0.720312,
2009-11-27, 03:14:04,VALID,1001.9,VALID,0,VALID,93.2936,VALID,0,VALID,24.383,VALID,17,VALID,0.560547,
2009-11-27, 03:15:04,VALID,1001.89,VALID,0,VALID,93.2173,VALID,0,VALID,24.3636,VALID,17,VALID,0.619922,
2009-11-27, 03:16:04,VALID,1001.94,VALID,0,VALID,93.2097,VALID,0.100563,VALID,24.3228,VALID,14,VALID,0.367969,
2009-11-27, 03:17:04,VALID,1001.91,VALID,0,VALID,93.347,VALID,0,VALID,24.3617,VALID,14,VALID,0.225781,
2009-11-27, 03:18:04,VALID,1001.89,VALID,0,VALID,93.3394,VALID,0.100563,VALID,24.3636,VALID,14,VALID,0,
2009-11-27, 03:19:04,VALID,1001.92,VALID,0,VALID,93.3088,VALID,0,VALID,24.3636,VALID,14,VALID,0,
2009-11-27, 03:20:04,VALID,1001.89,VALID,0,VALID,93.2936,VALID,0,VALID,24.3441,VALID,14,VALID,0.0371094,
2009-11-27, 03:21:04,VALID,1001.93,VALID,0,VALID,93.2631,VALID,0,VALID,24.3636,VALID,14,VALID,0.148438,
2009-11-27, 03:22:04,VALID,1001.91,VALID,0,VALID,93.3088,VALID,0,VALID,24.3636,VALID,14,VALID,0.166797,
2009-11-27, 03:23:04,VALID,1001.91,VALID,0,VALID,93.3546,VALID,0,VALID,24.383,VALID,14,VALID,0,
2009-11-27, 03:24:04,VALID,1001.93,VALID,0,VALID,93.4309,VALID,0,VALID,24.383,VALID,14,VALID,0.0546875,
2009-11-27, 03:25:04,VALID,1001.95,VALID,0,VALID,93.469,VALID,0.100563,VALID,24.383,VALID,14,VALID,0,
2009-11-27, 03:26:04,VALID,1001.96,VALID,0,VALID,93.5453,VALID,0.100563,VALID,24.383,VALID,14,VALID,0,
2009-11-27, 03:27:04,VALID,1001.98,VALID,0,VALID,93.6064,VALID,0,VALID,24.4025,VALID,14,VALID,0,
2009-11-27, 03:28:04,VALID,1001.95,VALID,0,VALID,93.7132,VALID,0,VALID,24.4025,VALID,15,VALID,0,
2009-11-27, 03:29:04,VALID,1001.99,VALID,0,VALID,93.8352,VALID,0,VALID,24.4414,VALID,15,VALID,0,
2009-11-27, 03:30:04,VALID,1001.97,VALID,0,VALID,94.0183,VALID,0,VALID,24.5388,VALID,30,VALID,0.432422,
2009-11-27, 03:31:04,VALID,1001.99,VALID,0,VALID,94.1404,VALID,0,VALID,24.5582,VALID,31,VALID,0.302734,
2009-11-27, 03:32:04,VALID,1001.98,VALID,0,VALID,94.2167,VALID,0,VALID,24.5777,VALID,31,VALID,0.221484,
2009-11-27, 03:33:04,VALID,1001.98,VALID,0,VALID,94.2548,VALID,0,VALID,24.6361,VALID,54,VALID,0.311328,
2009-11-27, 03:34:04,VALID,1002,VALID,0,VALID,94.3387,VALID,0.100563,VALID,24.675,VALID,54,VALID,0.259375,
2009-11-27, 03:35:04,VALID,1002.05,VALID,0,VALID,94.3692,VALID,0,VALID,24.675,VALID,54,VALID,0.363281,
2009-11-27, 03:36:04,VALID,1002.04,VALID,0,VALID,94.4074,VALID,0,VALID,24.7335,VALID,54,VALID,0.0613281,
2009-11-27, 03:37:04,VALID,1002.04,VALID,0,VALID,94.4532,VALID,0,VALID,24.7724,VALID,54,VALID,0.234766,
2009-11-27, 03:38:04,VALID,1002.04,VALID,0,VALID,94.4989,VALID,0,VALID,24.7724,VALID,54,VALID,0.175781,
2009-11-27, 03:39:04,VALID,1002.08,VALID,0,VALID,94.4989,VALID,0,VALID,24.7919,VALID,54,VALID,0.227734,
2009-11-27, 03:40:04,VALID,1002.11,VALID,0,VALID,94.5447,VALID,0,VALID,24.8113,VALID,54,VALID,0.138672,
2009-11-27, 03:41:04,VALID,1002.15,VALID,0,VALID,94.56,VALID,0,VALID,24.8503,VALID,54,VALID,0,
2009-11-27, 03:42:04,VALID,1002.13,VALID,0,VALID,94.5829,VALID,0,VALID,24.8911,VALID,54,VALID,0,
2009-11-27, 03:43:04,VALID,1002.12,VALID,0,VALID,94.5905,VALID,0.100563,VALID,24.8679,VALID,52,VALID,0.519141,
2009-11-27, 03:44:04,VALID,1002.14,VALID,0,VALID,94.621,VALID,0.100563,VALID,24.9068,VALID,351,VALID,0.769141,
2009-11-27, 03:45:04,VALID,1002.16,VALID,0,VALID,94.56,VALID,0.100563,VALID,24.8503,VALID,352,VALID,0.616797,
2009-11-27, 03:46:04,VALID,1002.16,VALID,0,VALID,94.4684,VALID,0.100563,VALID,24.8113,VALID,352,VALID,0.589453,
2009-11-27, 03:47:04,VALID,1002.16,VALID,0,VALID,94.3921,VALID,0.100563,VALID,24.8113,VALID,353,VALID,0.595312,
2009-11-27, 03:48:04,VALID,1002.2,VALID,0,VALID,94.3387,VALID,0,VALID,24.7919,VALID,353,VALID,0.465234,
2009-11-27, 03:49:04,VALID,1002.23,VALID,0,VALID,94.2167,VALID,0.100563,VALID,24.7724,VALID,355,VALID,0.870313,
2009-11-27, 03:50:04,VALID,1002.24,VALID,0,VALID,94.0641,VALID,0,VALID,24.7529,VALID,357,VALID,0.752734,
2009-11-27, 03:51:04,VALID,1002.27,VALID,0,VALID,93.8505,VALID,0.100563,VALID,24.714,VALID,356,VALID,1.10273,
2009-11-27, 03:52:04,VALID,1002.25,VALID,0,VALID,93.5301,VALID,0,VALID,24.675,VALID,354,VALID,1.18242,
2009-11-27, 03:53:04,VALID,1002.28,VALID,0,VALID,93.2859,VALID,0.100563,VALID,24.6556,VALID,344,VALID,1.01914,